Location: Herksen
(52.4316°N, 6.1319°E)
Time: 13:38:53
(UTC+00:00)

Cosmos 1470 - Pass Details

Date: 15 May 2026
Orbit: 420 x 430 km, 82.5° (Epoch: 11 June)

Event Time Altitude Azimuth Distance (km) Brightness Sun altitude
Rises 22:45:13 0° 345° (NNW) 2,390 7.8 -17.8°
Reaches altitude 10° 22:47:17 10° 340° (NNW) 1,518 6.3 -17.9°
Maximum altitude 22:50:30 50° 264° (W) 544 2.7 -18.0°
Enters shadow 22:51:04 44° 227° (SW) 600 2.7 -18.0°
